Weather History for KIZG - February, 2014

Change the Weather History Date:

Tuesday, February 18, 2014

  Actual Average (KLEW) Record (KLEW)
Temperature  
Mean Temperature 4 °F -  
Max Temperature 23 °F 31 °F - (-1)
Min Temperature -14 °F 13 °F - (-1)
Degree Days  
Heating Degree Days 60    
Moisture  
Dew Point 7 °F    
Average Humidity 80    
Maximum Humidity 89    
Minimum Humidity 62    
Precipitation  
Precipitation 0.45 in - - ()
Sea Level Pressure  
Sea Level Pressure 30.16 in    
Wind  
Wind Speed 2 mph (North)    
Max Wind Speed 9 mph    
Max Gust Speed -    
Visibility 4 miles    
Events Fog , Snow    
Averages and records for this station are not official NWS values.
T = Trace of Precipitation, MM = Missing Value Source: NWS Daily Summary

Daily Weather History Graph

Daily Weather History Graph

Search for Another Location

Airport or City:

Trip Planner

Search our weather history database for the weather conditions in past years. The results will help you decide how hot, cold, wet, or windy it might be!

Date:

Astronomy

Feb. 18, 2014 Rise Set
Actual Time 6:38 AM EST 5:17 PM EST
Civil Twilight 6:09 AM EST 5:47 PM EST
Nautical Twilight 5:35 AM EST 6:20 PM EST
Astronomical Twilight 5:02 AM EST 6:54 PM EST
Moon 9:17 PM EST (2/18) 8:00 AM EST (2/18)
Length of Visible Light 11h 38m
Length of Day
10h 39m
Waning Gibbous, 87% of the Moon is Illuminated
Feb 18
Waning Gibbous
Feb 22
Last Quarter
Mar 1
New
Mar 8
First Quarter
Mar 16
Full

Hourly Weather History & Observations

Time (EST) Temp. Windchill Dew Point Humidity Pressure Visibility Wind Dir Wind Speed Gust Speed Precip Events Conditions
12:54 AM -9.9 °F -19.2 °F -14.1 °F 82% 30.36 in 10.0 mi West 3.5 mph - N/A   Clear
1:54 AM -9.9 °F - -15.0 °F 78% 30.36 in 10.0 mi Calm Calm - N/A   Clear
2:54 AM -14.1 °F - -18.0 °F 82% 30.35 in 10.0 mi Calm Calm - N/A   Clear
3:54 AM -11.9 °F - -17.0 °F 78% 30.36 in 10.0 mi Calm Calm - N/A   Clear
4:54 AM -9.0 °F -18.2 °F -15.0 °F 75% 30.38 in 10.0 mi ENE 3.5 mph - N/A   Clear
5:54 AM -8.0 °F - -11.9 °F 83% 30.36 in 10.0 mi Calm Calm - N/A   Clear
6:54 AM -6.0 °F - -11.9 °F 75% 30.37 in 10.0 mi Calm Calm - N/A   Clear
7:54 AM -2.0 °F - -8.0 °F 76% 30.37 in 10.0 mi Calm Calm - N/A   Clear
8:36 AM 1.0 °F - -6.0 °F 72% 30.31 in 10.0 mi Calm Calm - N/A   Overcast
8:47 AM 1.9 °F - -6.0 °F 69% 30.31 in 10.0 mi Calm Calm - N/A   Overcast
8:54 AM 1.9 °F - -6.0 °F 69% 30.35 in 10.0 mi Calm Calm - N/A   Overcast
9:33 AM 3.9 °F - -5.1 °F 66% 30.26 in 2.5 mi Calm Calm - 0.00 in Snow Light Snow
9:38 AM 3.9 °F - -4.0 °F 70% 30.26 in 1.2 mi Calm Calm - 0.00 in Snow Light Snow
9:54 AM 3.9 °F - -2.0 °F 76% 30.31 in 0.8 mi Calm Calm - 0.00 in Snow Light Snow
10:00 AM 5.0 °F -2.1 °F -0.9 °F 76% 30.26 in 1.5 mi Variable 3.5 mph - 0.00 in Snow Light Snow
10:04 AM 5.0 °F - -0.9 °F 76% 30.25 in 3.0 mi Calm Calm - 0.00 in Snow Light Snow
10:10 AM 5.0 °F -2.1 °F -0.9 °F 76% 30.26 in 7.0 mi West 3.5 mph - 0.00 in Snow Light Snow
10:25 AM 9.0 °F - -0.0 °F 67% 30.25 in 10.0 mi Calm Calm - 0.00 in   Overcast
10:54 AM 10.9 °F - 1.9 °F 67% 30.30 in 10.0 mi Calm Calm - 0.00 in   Overcast
11:49 AM 15.8 °F 10.2 °F 5.0 °F 62% 30.21 in 1.8 mi NE 3.5 mph - 0.00 in Snow Light Snow
11:54 AM 15.1 °F - 6.1 °F 68% 30.24 in 1.8 mi Calm Calm - 0.00 in Snow Light Snow
12:04 PM 15.1 °F - 6.1 °F 68% 30.19 in 2.0 mi Calm Calm - 0.00 in Snow Light Snow
12:16 PM 15.1 °F 9.4 °F 7.0 °F 70% 30.19 in 1.5 mi North 3.5 mph - 0.00 in Snow Light Snow
12:26 PM 16.0 °F - 8.1 °F 71% 30.18 in 2.5 mi Calm Calm - 0.00 in Snow Light Snow
12:54 PM 17.1 °F 10.0 °F 9.0 °F 71% 30.19 in 2.0 mi NE 4.6 mph - 0.00 in Snow Light Snow
1:03 PM 17.1 °F - 10.0 °F 74% 30.16 in 1.8 mi Calm Calm - 0.01 in Snow Light Snow
1:23 PM 17.1 °F - 10.9 °F 77% 30.15 in 1.0 mi Calm Calm - 0.01 in Snow Light Snow
1:37 PM 17.1 °F - 10.9 °F 77% 30.15 in 0.8 mi Calm Calm - 0.01 in Snow Light Snow
1:49 PM 17.6 °F - 12.2 °F 79% 30.14 in 0.5 mi Calm Calm - 0.02 in Snow Snow
1:54 PM 17.1 °F 10.0 °F 12.0 °F 81% 30.17 in 0.5 mi NNE 4.6 mph - 0.02 in Snow Snow
2:15 PM 17.1 °F - 12.9 °F 84% 30.13 in 0.5 mi Calm Calm - 0.02 in Fog , Snow Snow
2:30 PM 18.0 °F - 12.9 °F 81% 30.12 in 0.5 mi Calm Calm - 0.03 in Snow Snow
2:54 PM 18.0 °F - 12.9 °F 81% 30.15 in 0.5 mi Calm Calm - 0.04 in Snow Snow
3:48 PM 19.4 °F 14.3 °F 15.8 °F 86% 30.08 in 0.2 mi North 3.5 mph - 0.04 in Fog , Snow Snow
3:54 PM 19.0 °F - 15.1 °F 85% 30.11 in 0.2 mi Calm Calm - 0.05 in Fog , Snow Heavy Snow
4:54 PM 19.0 °F - 16.0 °F 88% 30.08 in 0.2 mi Calm Calm - 0.12 in Fog , Snow Heavy Snow
5:16 PM 19.0 °F 13.9 °F 15.1 °F 85% 30.04 in 0.5 mi NW 3.5 mph - 0.03 in Fog , Snow Snow
5:54 PM 19.9 °F - 17.1 °F 89% 30.06 in 0.5 mi Calm Calm - 0.08 in Fog , Snow Snow
6:33 PM 19.9 °F 14.9 °F 17.1 °F 89% 30.01 in 0.5 mi NNW 3.5 mph - 0.07 in Fog , Snow Snow
6:43 PM 21.0 °F 14.6 °F 18.0 °F 88% 30.01 in 0.5 mi Variable 4.6 mph - 0.08 in Fog , Snow Snow
6:54 PM 21.0 °F 16.2 °F 18.0 °F 88% 30.05 in 0.8 mi North 3.5 mph - 0.09 in Snow Light Snow
7:10 PM 21.0 °F 12.4 °F 18.0 °F 88% 30.01 in 1.2 mi North 6.9 mph - 0.01 in Snow Light Snow
7:21 PM 21.9 °F 13.4 °F 18.0 °F 85% 30.00 in 1.2 mi North 6.9 mph - 0.02 in Snow Light Snow
7:30 PM 21.9 °F 14.5 °F 19.0 °F 89% 30.00 in 1.5 mi North 5.8 mph - 0.02 in Snow Light Snow
7:42 PM 21.9 °F 13.4 °F 19.0 °F 89% 30.00 in 1.2 mi North 6.9 mph - 0.02 in Snow Light Snow
7:54 PM 21.9 °F 11.7 °F 19.0 °F 89% 30.02 in 1.2 mi North 9.2 mph - 0.03 in Snow Light Snow
8:41 PM 23.0 °F 13.1 °F 19.0 °F 85% 29.98 in 1.5 mi North 9.2 mph - 0.02 in Snow Light Snow
8:54 PM 23.0 °F 15.8 °F 19.9 °F 88% 30.00 in 2.0 mi North 5.8 mph - 0.02 in Snow Light Snow
9:11 PM 23.0 °F 15.8 °F 19.9 °F 88% 29.96 in 3.0 mi North 5.8 mph - 0.00 in Snow Light Snow
9:54 PM 23.0 °F - 19.9 °F 88% 30.00 in 9.0 mi Calm Calm - 0.00 in Snow Light Snow
10:06 PM 23.0 °F - 19.9 °F 88% 29.97 in 10.0 mi Calm Calm - 0.00 in   Overcast
10:43 PM 23.0 °F - 19.9 °F 88% 29.96 in 10.0 mi Calm Calm - 0.00 in   Overcast
10:51 PM 23.0 °F - 19.4 °F 86% 29.97 in 10.0 mi Calm Calm - 0.00 in   Overcast
10:54 PM 23.0 °F - 19.9 °F 88% 30.00 in 10.0 mi Calm Calm - 0.00 in   Overcast
11:26 PM 23.0 °F - 19.9 °F 88% 29.97 in 9.0 mi Calm Calm - 0.00 in Snow Light Snow
11:54 PM 23.0 °F - 19.9 °F 88% 30.00 in 7.0 mi Calm Calm - 0.00 in Snow Light Snow